Flag for USA

Past Weather in 43°05'29"N, 77°23'36"W, USA — Yesterday and Last 2 Weeks

Now
64 °F

Passing clouds.


Feels Like: 64 °F
Forecast: 78 / 59 °F
Wind: No wind

Location: Greater Rochester International Airport
Current Time: Sep 25, 2020 at 10:04:41 pm
Latest Report: Sep 25, 2020 at 8:54 pm
Visibility: 10 mi
Pressure30.03 "Hg
Humidity: 81%
Dew Point: 58 °F
Location of 43°05'29"N, 77°23'36"WLocation

Past Weather in 43°05'29"N, 77°23'36"W — Graph

°F

43°05'29"N, 77°23'36"W Temperature Yesterday

Maximum temperature yesterday: 77 °F (at 1:54 pm)
Minimum temperature yesterday: 54 °F (at 4:54 am)
Average temperature yesterday: 64 °F

High & Low Weather Summary for the Past Weeks

 TemperatureHumidityPressure
High79 °F (Sep 25, 2:54 pm)100% (Sep 24, 2:54 am)30.62 "Hg (Sep 24, 2:54 am)
Low36 °F (Sep 21, 4:54 am)27% (Sep 20, 1:54 pm)29.90 "Hg (Sep 23, 3:54 pm)
Average58 °F70%30.20 "Hg
* Reported Sep 10 7:54 pm — Sep 25 7:54 pm, 43°05'29"N, 77°23'36"W. Weather by CustomWeather, © 2020

Note: Actual official high and low records may vary slightly from our data, if they occured in-between our weather recording intervals... More about our weather records

43°05'29"N, 77°23'36"W Weather History for the Previous 24 Hours

Scroll right to see more
 ConditionsComfort  
Time TempWeatherWind HumidityBarometerVisibility
7:54 pm
Fri, Sep 25
66 °FClear.5 mph73%30.03 "Hg10 mi
6:54 pm69 °FSunny.7 mph68%30.02 "Hg10 mi
5:54 pm74 °FSunny.8 mph57%30.02 "Hg10 mi
4:54 pm76 °FSunny.7 mph54%30.02 "Hg10 mi
3:54 pm79 °FPassing clouds.7 mph38%30.03 "Hg10 mi
2:54 pm79 °FPassing clouds.5 mph38%30.04 "Hg10 mi
1:54 pm77 °FPassing clouds.No wind45%30.06 "Hg10 mi
12:54 pm75 °FPassing clouds.5 mph52%30.08 "Hg10 mi
11:54 am74 °FPassing clouds.5 mph53%30.09 "Hg10 mi
10:54 am69 °FScattered clouds.8 mph63%30.10 "Hg10 mi
9:54 am66 °FScattered clouds.7 mph68%30.10 "Hg10 mi
8:54 am61 °FScattered clouds.8 mph81%30.09 "Hg10 mi
7:54 am57 °FScattered clouds.7 mph90%30.08 "Hg10 mi
6:54 am57 °FPassing clouds.3 mph90%30.05 "Hg10 mi
5:54 am57 °FPassing clouds.8 mph90%30.03 "Hg10 mi
4:54 am57 °FPassing clouds.7 mph93%30.01 "Hg10 mi
3:54 am58 °FPassing clouds.6 mph93%30.01 "Hg10 mi
2:54 am60 °FPassing clouds.6 mph86%30.00 "Hg10 mi
1:54 am60 °FPassing clouds.5 mph90%30.01 "Hg10 mi
12:54 am62 °FPassing clouds.5 mph80%30.00 "Hg10 mi
11:54 pm
Thu, Sep 24
61 °FPassing clouds.7 mph83%30.00 "Hg10 mi
10:54 pm61 °FPassing clouds.5 mph87%30.00 "Hg10 mi
Weather by CustomWeather, © 2020

See weather overview